RH
11 13 14 17 19 20 21 21 21 20 20 19 21 21 21 18 16 15 14 16 18 19 23 26 26 20 16 15 17 17 17 20 21 20 24 26 22 19 19 20 20 18 15 14 15 19 18 16 15 13 9 9 13 17 17 12 24 40 39 37 40 39 36 30 28 31 28 28 29 28 32 35 35 38 41 44 47 48 47 44 38 34 33 31 30 27 27 28
12 13 15 19 19 20 20 21 21 20 20 19 21 22 21 19 16 15 14 16 18 22 26 25 22 18 16 15 16 16 16 18 19 21 23 22 19 19 19 19 21 19 15 14 17 23 24 19 15 13 9 10 16 16 17 18 22 30 42 47 37 33 31 25 26 27 27 28 27 31 35 37 41 37 39 53 58 54 53 52 46 41 36 33 30 28 28 27
12 14 17 19 19 21 20 21 20 20 20 19 22 21 21 19 16 14 14 17 20 24 24 20 19 19 18 15 16 17 17 20 20 21 20 19 19 18 19 20 21 21 20 17 16 22 22 18 16 14 12 13 16 18 22 28 29 32 45 46 31 29 27 24 28 28 29 27 24 34 40 42 46 41 43 56 60 58 58 56 51 47 40 37 35 30 28 28
13 17 19 19 20 20 20 21 20 20 20 19 22 21 20 18 15 14 15 19 21 23 21 18 18 20 17 13 16 17 19 28 25 20 20 18 18 18 19 20 20 21 22 21 20 19 18 18 16 14 20 22 22 25 27 26 30 38 42 33 23 26 27 27 31 30 31 29 26 35 42 45 45 44 49 57 63 63 59 55 52 49 41 39 38 33 29 30
16 19 19 19 20 20 20 20 20 20 19 20 22 21 19 17 15 15 16 20 21 21 19 18 17 18 18 16 19 18 26 37 26 18 20 18 18 18 18 19 20 20 20 23 24 20 18 18 15 19 28 32 34 32 24 20 29 39 32 23 20 23 24 26 31 32 31 30 33 39 42 45 45 48 52 57 68 64 55 54 52 46 42 40 37 33 32 33
18 19 19 20 20 20 20 20 20 19 19 21 21 20 18 16 16 15 18 21 22 21 20 19 17 17 17 20 21 17 29 35 21 18 20 18 18 17 19 18 19 19 18 20 20 19 17 17 16 21 33 37 37 32 22 20 35 42 27 20 22 22 24 24 29 32 30 30 35 38 41 46 50 52 52 55 62 59 53 53 52 46 39 35 33 35 38 38
18 19 19 19 20 19 20 20 19 19 20 21 21 19 17 16 15 16 20 22 21 22 21 19 18 19 18 19 21 20 28 27 18 20 19 18 18 17 19 17 17 16 16 17 19 20 19 20 18 24 41 42 32 29 29 30 43 47 29 20 22 21 24 26 29 30 29 30 31 35 40 47 54 52 50 54 54 53 53 49 45 41 33 31 37 41 40 38
18 19 19 19 20 19 20 19 18 19 20 20 20 19 17 15 14 17 22 20 20 21 19 17 17 21 20 20 29 30 27 23 19 18 18 19 18 19 18 15 14 13 16 19 21 22 23 25 21 27 43 40 32 33 36 42 49 47 31 22 21 21 23 27 30 29 27 28 28 34 40 45 48 47 49 52 48 45 45 43 42 39 38 39 44 44 39 36
18 18 19 19 19 19 19 18 18 18 19 20 21 19 16 14 15 19 20 18 19 17 15 16 15 20 24 24 33 34 23 19 18 17 18 20 19 20 19 17 14 14 19 21 22 23 24 28 24 27 32 29 36 39 39 47 48 42 36 28 20 16 20 25 27 27 26 26 28 33 38 42 39 41 48 47 42 40 39 40 41 40 41 42 45 43 37 37
18 18 19 19 19 18 19 18 18 18 20 22 20 18 16 15 17 19 18 17 17 15 16 18 14 16 22 25 30 28 20 18 17 16 19 20 21 20 18 20 16 15 20 22 24 24 25 27 24 27 29 29 35 37 41 47 44 41 42 37 25 17 17 23 24 25 25 21 26 33 37 39 35 40 47 42 37 36 37 37 36 37 37 37 42 40 33 33
18 18 19 18 18 18 18 18 18 20 21 20 19 17 16 17 18 17 17 17 16 15 17 19 18 14 14 18 25 23 17 17 16 16 20 21 21 19 17 19 16 15 19 22 23 24 26 24 26 33 32 26 24 32 39 41 42 39 38 37 32 26 19 20 22 24 23 17 24 32 34 35 33 41 43 35 34 33 33 34 33 34 34 34 36 36 32 30
18 18 18 18 18 18 19 19 20 21 21 20 17 15 16 17 17 17 17 16 15 17 17 18 20 17 14 17 20 19 16 16 16 15 19 20 20 19 16 15 14 13 15 19 19 20 23 20 27 35 31 26 23 30 33 36 43 36 36 38 33 37 31 20 19 21 21 19 26 31 36 42 38 40 38 30 31 31 32 33 33 33 32 33 33 34 34 30
18 17 18 18 18 19 20 19 19 20 21 19 15 15 16 16 17 17 15 14 14 15 15 16 17 14 18 22 17 15 15 15 14 14 17 18 19 18 15 14 13 11 11 15 16 17 19 18 23 28 34 40 33 30 32 38 40 33 43 46 39 48 45 26 17 20 22 21 30 30 41 57 44 35 34 30 32 32 35 35 33 34 32 34 34 34 35 30
18 17 18 18 19 20 20 19 19 20 21 18 15 15 15 16 17 15 14 16 17 17 18 20 19 17 24 23 15 13 14 13 12 14 15 15 16 15 13 14 14 12 11 12 13 15 17 16 21 30 41 43 32 34 46 48 39 35 48 55 50 46 43 35 21 20 22 23 32 29 42 59 42 34 34 30 32 33 37 37 34 35 33 35 36 35 35 31
17 17 18 20 20 20 18 18 18 19 20 17 15 16 16 16 15 13 15 17 17 17 20 23 19 21 30 21 11 13 11 12 12 12 15 15 15 15 13 13 13 14 13 11 13 13 15 17 23 32 40 44 41 47 55 51 48 47 44 50 57 46 44 45 27 23 21 20 33 32 47 60 40 35 37 32 34 34 37 38 35 35 34 35 35 34 33 31
16 17 19 21 21 18 17 17 16 18 19 17 16 17 17 17 14 14 14 14 16 14 15 19 13 18 29 18 10 13 10 12 13 10 13 15 15 15 15 13 11 14 14 13 13 14 15 23 31 31 38 49 52 57 59 58 68 68 47 37 44 42 45 43 30 37 34 22 30 33 45 58 46 38 37 34 35 35 38 38 36 35 34 34 33 33 33 32
16 18 20 21 19 16 16 15 15 16 16 15 15 15 16 17 16 16 15 16 18 15 12 13 11 18 23 14 11 14 13 13 12 11 12 14 15 14 15 15 14 14 14 13 13 16 17 28 37 32 38 47 49 58 55 47 60 71 64 52 50 46 41 35 29 41 46 34 34 33 34 48 49 42 37 36 36 37 39 38 37 36 35 35 33 33 33 34
16 18 20 19 17 16 16 15 15 14 15 16 15 15 16 15 14 13 16 18 17 19 17 14 16 21 20 14 15 16 14 12 12 12 11 13 14 13 16 18 18 16 18 20 18 22 26 33 39 30 35 45 51 60 45 30 43 60 64 61 66 59 39 30 23 30 45 41 38 36 31 41 48 42 38 38 36 38 39 37 37 36 35 36 35 34 33 35
16 19 19 17 16 16 15 14 15 13 13 15 14 16 17 19 21 15 15 17 19 23 22 24 27 22 16 15 17 15 12 12 12 11 12 15 14 14 16 16 18 23 33 36 28 29 35 42 46 39 41 48 53 60 47 37 49 57 57 57 64 53 35 31 22 27 44 41 40 39 31 39 47 44 41 39 38 40 39 37 36 36 36 37 37 36 35 34
17 20 18 17 16 15 15 16 17 15 14 17 19 25 31 36 34 26 28 30 30 31 26 31 32 20 17 18 16 15 14 13 11 13 14 15 16 16 18 24 29 33 44 47 35 33 41 48 51 45 45 46 44 50 51 52 60 61 63 68 62 44 33 30 20 30 47 42 42 41 34 40 44 44 43 39 40 41 39 38 37 37 38 37 38 38 37 34
17 19 16 17 16 15 15 17 23 20 17 19 24 36 49 52 39 28 36 35 30 31 26 24 23 18 17 17 17 17 18 16 12 15 15 15 20 18 23 40 40 31 39 47 38 34 38 41 46 42 38 37 40 50 57 58 59 60 64 64 52 37 30 24 22 37 48 43 39 36 39 44 43 44 43 41 43 41 39 39 39 39 39 38 39 39 38 35
16 17 16 16 16 17 14 14 20 19 16 16 21 37 49 51 40 31 36 34 25 27 25 21 19 18 17 15 16 17 19 20 16 16 15 18 24 25 37 49 40 33 41 49 46 45 44 37 39 41 38 42 53 60 55 49 54 64 66 58 44 34 32 28 28 34 39 40 37 35 41 41 40 44 43 42 43 42 40 39 40 41 39 39 39 38 38 39
15 16 17 15 15 17 16 15 13 13 14 12 20 34 37 37 35 31 35 34 29 28 28 27 22 21 21 15 15 19 21 22 22 21 18 23 28 33 50 54 45 44 44 46 45 42 36 28 34 45 47 51 57 59 53 43 50 60 51 42 41 36 33 29 24 27 34 41 40 40 48 48 45 45 42 42 44 43 44 44 45 45 43 41 39 39 39 38
15 17 17 15 15 15 20 20 15 17 19 15 22 29 31 31 27 27 34 35 32 30 27 25 20 20 21 17 15 23 26 23 24 23 20 26 32 37 46 49 50 54 54 50 45 39 27 22 36 52 54 53 53 59 58 42 42 54 44 31 36 37 33 30 30 37 42 49 52 46 51 61 57 50 46 45 45 45 46 46 45 44 46 45 41 42 40 35
15 17 17 17 15 13 18 19 20 28 28 21 24 27 29 28 23 25 34 38 36 30 25 23 22 18 17 16 19 27 31 25 21 21 22 25 32 41 42 42 44 51 60 55 43 44 40 33 39 47 52 53 55 56 50 39 39 53 54 36 31 36 37 36 40 48 50 54 54 43 52 70 60 50 52 50 49 48 46 48 47 44 45 47 43 37 33 29
15 17 19 17 14 15 18 19 22 30 35 31 26 25 27 26 24 24 36 53 47 30 23 22 21 19 17 19 26 36 35 27 19 16 23 24 28 40 43 47 48 45 54 50 37 39 41 46 47 44 49 52 55 50 43 46 41 44 54 42 36 42 42 42 43 51 58 53 44 39 54 67 50 40 51 56 57 52 47 49 48 44 44 45 41 32 27 25
17 18 18 15 14 16 20 26 27 29 39 42 29 23 26 26 24 25 40 54 42 25 23 23 19 15 19 23 27 33 26 23 22 16 23 25 23 37 45 49 49 43 52 52 41 36 36 50 55 51 55 50 39 33 39 50 38 40 57 45 41 46 44 48 47 54 63 54 51 48 43 48 46 46 56 60 61 56 50 50 48 45 44 41 36 31 29 25
19 18 17 17 15 14 17 26 30 25 27 31 24 23 28 25 22 36 48 36 21 22 23 25 21 12 22 28 26 30 25 25 28 18 23 24 19 36 44 42 45 46 57 52 33 29 35 44 49 50 51 39 23 20 35 48 38 46 60 47 48 54 49 49 46 54 60 52 61 55 31 36 46 47 58 62 60 59 55 53 52 46 42 38 33 31 30 27
18 17 17 16 15 17 17 20 26 23 19 22 24 24 26 23 27 49 50 23 20 30 25 25 22 16 33 41 34 37 32 31 32 24 29 26 20 33 36 39 49 46 50 50 31 27 42 52 53 47 34 23 23 27 37 44 40 48 55 48 49 48 41 39 44 54 50 48 61 47 26 37 42 38 53 61 58 61 60 56 55 49 42 38 34 32 30 30
17 17 17 15 19 23 20 20 19 17 20 23 24 23 24 30 48 59 37 15 28 37 30 32 27 27 45 49 43 45 38 35 36 34 38 34 26 34 37 41 51 46 45 54 46 38 50 63 62 48 29 24 32 37 43 48 46 47 52 47 36 35 36 39 55 59 47 60 69 42 27 39 43 46 58 61 58 63 62 56 59 58 48 39 36 35 33 33
13 15 14 13 18 19 25 34 23 14 23 23 23 30 34 43 63 61 27 14 36 41 35 39 40 45 52 45 36 41 47 43 36 37 45 47 39 36 40 40 49 65 69 64 54 49 54 57 57 52 43 40 40 42 52 59 54 50 52 41 24 31 41 41 57 55 40 62 69 38 29 37 45 57 62 60 63 68 64 58 65 64 46 34 34 34 35 34
13 14 13 13 16 14 24 39 27 16 22 20 25 40 50 53 50 44 32 29 38 39 33 35 44 50 51 45 34 36 47 42 35 38 45 58 59 47 46 47 47 55 58 58 54 49 53 51 47 51 48 41 35 36 47 54 53 48 44 39 32 38 45 40 50 48 34 50 56 36 31 36 40 51 61 64 64 66 66 65 65 52 32 28 30 29 30 29
12 13 14 14 17 15 19 25 20 18 20 24 39 51 60 58 35 26 38 38 31 33 35 39 51 56 48 40 34 38 43 34 33 39 39 54 65 57 55 59 53 37 33 49 47 37 51 55 45 40 36 35 29 22 26 32 41 42 35 41 45 40 42 45 51 49 37 38 40 31 35 45 40 42 56 62 58 58 63 64 49 27 20 24 25 25 26 25
15 14 12 11 15 17 19 20 18 18 19 31 58 65 52 39 26 26 39 43 40 43 46 48 55 57 43 30 32 39 36 29 34 42 47 55 56 54 56 57 59 51 46 51 39 31 43 47 43 35 24 28 32 28 29 32 44 49 39 42 48 44 47 54 57 55 44 39 35 28 42 55 44 42 54 54 52 54 55 52 35 18 21 23 21 25 24 24
23 21 15 11 14 14 17 21 18 18 22 33 56 67 47 23 25 39 47 53 54 48 50 55 52 50 44 37 41 40 27 29 42 45 50 55 48 46 51 51 54 58 54 45 35 35 37 36 45 44 29 26 32 42 49 44 46 50 45 43 49 51 50 51 59 56 45 51 53 41 49 52 32 35 54 54 49 43 32 31 25 19 22 22 23 25 23 25
27 30 22 14 16 15 14 18 16 21 33 40 44 52 46 32 36 52 56 54 52 47 49 53 48 46 47 44 46 42 29 34 46 41 40 50 50 47 51 52 53 55 52 44 40 42 37 36 42 41 39 34 33 48 52 40 34 38 41 43 46 49 45 50 63 58 49 58 57 41 45 48 32 33 50 51 41 30 22 23 22 21 22 21 24 24 23 27
22 29 24 16 19 19 18 17 17 23 34 44 48 45 43 45 49 62 66 56 52 54 50 46 40 34 35 38 43 43 33 34 40 32 29 38 44 50 56 56 51 49 49 47 48 48 42 44 47 40 39 42 47 52 47 42 37 31 36 45 51 54 52 57 63 57 55 59 51 40 46 56 50 45 47 42 34 28 25 25 22 21 22 22 24 24 25 27
21 29 26 18 16 18 23 25 26 31 33 47 62 55 50 58 58 65 72 62 55 54 44 40 37 26 26 33 40 44 36 31 35 31 28 32 37 44 53 54 52 55 56 49 51 57 48 47 57 50 35 43 55 46 40 50 44 34 42 51 55 57 56 58 56 54 60 61 54 47 47 57 57 50 46 38 32 31 27 25 24 23 23 23 25 25 25 28
30 36 28 17 13 16 24 26 28 37 39 50 65 56 54 68 68 70 76 66 57 49 36 34 35 31 32 33 36 46 42 33 34 34 29 30 37 45 51 54 55 63 71 59 54 62 54 46 58 56 35 34 43 37 42 56 47 42 49 50 55 62 59 57 54 57 64 65 68 61 51 57 54 43 39 33 30 31 28 26 25 23 25 25 25 26 27 29
36 40 26 13 13 16 19 18 25 43 49 53 64 59 57 67 69 72 78 71 59 46 34 34 37 38 40 39 40 44 43 40 36 33 31 30 35 47 60 65 62 71 82 71 61 64 57 49 58 60 44 33 33 34 38 45 47 54 54 47 54 60 57 57 53 56 64 68 76 73 59 53 42 31 30 29 29 30 27 26 25 25 27 25 26 28 28 30
37 38 24 15 12 12 19 23 35 58 66 63 67 62 56 61 65 71 78 76 65 50 40 41 44 45 44 45 48 43 42 48 42 33 33 32 31 41 60 75 78 81 75 59 55 56 49 49 56 59 51 36 31 35 36 39 47 54 54 52 57 61 60 64 61 60 68 71 71 73 67 54 36 27 27 27 29 29 26 26 27 28 27 26 28 29 28 32
45 33 17 17 12 9 25 43 59 77 77 67 63 57 54 58 57 58 67 67 58 53 51 45 46 52 47 44 52 47 42 48 45 35 34 35 38 49 69 87 91 87 71 53 55 58 51 54 62 66 58 39 35 43 48 51 46 40 43 47 56 67 64 62 65 68 74 70 61 68 75 59 36 27 26 28 30 28 26 28 30 30 28 28 30 29 30 34
48 27 12 18 17 12 25 46 65 77 69 58 55 52 56 60 51 47 58 59 49 50 54 46 41 46 44 44 53 50 40 39 39 37 36 39 50 68 86 94 90 87 79 60 55 58 57 58 61 60 51 40 43 47 46 52 50 43 48 49 54 66 64 60 65 73 84 81 68 75 76 53 33 28 27 28 28 27 27 30 31 31 30 31 32 31 33 37
48 27 19 20 13 16 33 47 59 67 61 55 52 50 56 64 61 60 62 59 52 47 48 49 45 42 45 50 54 51 40 30 30 36 34 33 49 75 93 92 83 82 78 65 57 51 50 53 51 47 44 39 40 38 35 42 42 37 49 58 57 58 61 67 68 75 90 82 69 78 71 40 27 30 28 27 27 29 31 30 30 31 32 33 33 33 37 38
44 30 31 27 15 25 47 58 63 64 62 58 50 46 52 55 58 66 63 56 57 52 47 50 49 45 51 55 53 55 46 28 26 37 37 35 54 85 99 92 86 89 87 85 83 69 59 57 47 40 45 46 43 38 37 41 37 31 41 54 60 60 61 66 70 77 83 71 63 74 65 38 29 32 30 29 31 35 35 33 31 31 33 35 34 36 39 37
39 33 38 37 30 38 53 66 72 63 58 60 46 37 47 46 47 64 64 54 59 59 51 51 48 42 46 49 52 58 54 38 32 37 39 42 54 75 91 94 92 96 95 96 94 79 69 68 55 46 49 47 42 37 35 38 36 34 38 44 58 72 69 68 76 74 68 70 69 61 54 51 45 37 34 33 37 41 39 35 34 33 35 36 36 39 39 33
43 35 37 36 33 46 58 65 74 63 52 58 44 30 43 46 41 53 53 47 58 64 55 52 48 38 34 38 47 56 54 42 38 39 39 50 59 63 77 92 94 94 95 99 96 70 52 56 56 53 52 46 41 36 33 38 36 34 42 45 54 75 79 75 78 65 57 74 72 48 49 64 55 38 36 40 42 44 40 37 36 35 36 37 37 39 37 31
40 36 40 37 31 46 52 48 60 62 53 60 52 36 43 49 46 50 47 47 57 56 45 45 49 46 38 36 44 56 55 43 44 49 41 48 64 62 64 78 89 95 90 85 83 57 37 55 62 51 49 45 41 39 35 39 40 37 44 42 41 64 82 77 72 61 60 76 73 53 53 58 47 37 40 43 44 44 41 38 36 35 37 39 40 39 35 34
39 39 41 46 43 45 45 44 58 60 52 60 58 41 43 50 50 55 55 52 52 47 38 39 51 58 54 51 53 53 49 39 41 53 48 45 58 61 57 61 73 91 83 66 70 57 41 64 73 55 54 50 41 44 42 41 43 37 34 32 27 43 68 74 70 64 63 68 62 51 50 47 40 40 42 42 43 42 40 38 37 37 40 42 42 39 37 36
36 34 34 49 56 50 46 49 57 54 48 56 51 37 46 54 50 55 60 50 43 47 47 41 50 66 66 63 58 48 46 43 38 49 53 50 58 64 58 51 57 75 73 62 73 63 41 61 74 58 58 54 40 42 40 34 36 32 28 33 33 40 59 72 70 59 54 53 44 42 51 51 40 38 44 45 44 43 42 42 42 41 41 43 43 41 39 38
31 30 25 33 40 41 42 41 48 53 50 53 48 40 50 57 53 54 57 53 51 54 54 47 53 70 70 64 61 55 60 61 53 58 60 56 63 64 53 50 56 64 67 69 79 66 45 61 75 65 62 52 34 35 36 30 36 45 49 51 49 53 63 67 62 51 43 44 47 53 60 53 39 41 49 49 46 47 47 45 45 43 42 44 44 42 41 38
26 25 31 38 33 34 45 46 53 57 48 51 61 60 57 59 61 55 42 48 65 68 63 59 57 60 60 56 58 62 70 72 69 74 73 67 70 66 58 62 62 60 70 78 78 70 59 60 67 68 64 50 33 32 38 37 43 58 66 60 51 49 50 47 44 37 30 35 49 57 52 42 41 50 57 55 51 51 49 47 47 46 44 44 43 43 41 39
Wind_Speed
5 5 4 4 5 6 6 6 6 7 8 9 9 8 6 5 4 4 5 7 10 11 11 12 12 10 5 2 3 3 3 4 13 26 21 17 22 16 15 15 15 15 11 8 8 10 12 13 7 6 4 4 1 0 2 2 2 4 3 3 1 1 0 1 1 1 1 1 5 5 5 7 4 3 5 7 12 9 10 10 9 10 11 12 14 16 18 21
5 5 4 5 6 6 6 6 6 7 8 9 9 8 6 4 4 4 6 8 10 11 12 13 12 9 5 3 4 4 3 4 12 20 19 22 19 13 14 15 14 14 12 8 6 8 6 6 8 5 0 0 2 1 1 2 2 3 3 4 0 2 1 2 3 3 3 1 3 5 7 8 4 2 4 5 5 6 9 7 6 9 9 11 14 16 18 21
5 5 5 5 6 5 5 5 6 7 8 9 8 7 6 4 4 5 6 9 10 11 13 13 11 11 7 3 3 4 2 5 11 13 20 23 15 12 14 13 14 15 14 9 6 7 5 9 11 6 2 1 2 2 2 2 2 1 3 4 2 3 3 4 5 3 2 1 3 4 7 8 5 4 4 7 6 7 7 4 4 7 6 7 9 13 16 18
5 5 5 5 5 5 4 5 7 7 9 8 8 7 6 5 5 5 7 9 10 11 13 11 10 13 9 2 1 2 2 6 6 12 21 21 14 13 14 13 15 15 15 11 8 8 9 12 10 3 2 1 2 3 3 2 2 3 3 3 3 2 4 3 4 3 4 3 3 4 7 7 4 6 4 8 8 6 3 3 5 7 6 6 6 9 12 14
5 5 5 5 4 4 5 6 7 8 9 8 8 8 7 6 5 6 8 8 9 11 12 12 10 13 12 6 3 3 3 5 5 15 22 20 15 14 14 13 14 17 17 11 10 11 11 10 5 2 3 2 4 4 3 2 3 3 2 3 2 3 4 1 3 3 4 4 5 6 7 4 2 5 4 5 6 3 3 4 6 7 6 6 5 7 10 11
5 5 4 4 4 4 5 7 8 9 9 9 8 8 6 5 5 6 8 7 8 10 11 12 10 10 10 10 11 9 5 3 8 17 22 19 15 15 14 14 17 17 13 10 12 11 6 5 2 3 3 3 3 3 2 5 5 4 1 3 4 4 4 0 1 2 3 4 4 5 5 4 6 6 4 7 7 6 6 6 8 8 8 9 8 7 7 8
5 4 4 3 4 5 6 7 8 9 9 9 8 7 6 5 6 7 7 7 8 9 11 12 11 9 6 5 12 14 8 2 11 17 21 18 14 15 14 14 18 14 10 14 16 9 5 6 3 1 4 4 3 3 2 5 6 6 2 0 3 5 5 3 3 2 1 3 4 7 7 5 8 6 4 7 8 7 8 9 10 10 11 11 8 7 6 7
4 4 4 4 4 5 7 7 8 9 9 8 7 6 5 5 6 7 7 8 8 10 11 11 12 10 6 2 4 8 5 4 15 18 19 16 14 15 12 15 19 14 13 16 13 7 4 6 5 2 4 2 3 2 2 5 6 4 3 2 3 3 4 5 4 3 3 0 5 10 9 5 8 8 6 8 9 8 9 10 10 10 10 9 7 6 6 8
4 4 4 4 5 6 7 7 8 9 8 8 7 6 5 6 7 6 7 8 9 10 10 13 15 10 6 5 5 5 4 10 14 16 17 14 15 14 13 17 19 16 15 15 14 11 5 4 5 3 4 1 4 2 2 3 1 1 3 2 3 2 3 5 3 4 4 1 7 10 7 7 9 9 6 8 10 9 10 9 8 8 7 6 5 5 7 7
4 4 4 4 5 7 6 7 8 8 8 8 7 6 5 5 5 5 7 8 9 10 10 13 18 18 15 9 7 5 6 11 12 15 15 11 13 15 16 17 16 16 14 12 15 13 5 1 3 1 5 2 3 2 2 3 2 2 2 2 2 2 2 4 4 5 3 1 7 9 8 9 10 5 3 8 10 10 10 9 7 8 7 6 5 5 8 8
4 4 4 5 6 6 7 8 8 8 8 8 7 5 4 4 4 5 7 7 7 9 11 12 13 18 21 15 8 4 7 10 12 16 13 8 11 13 15 15 13 15 12 10 12 10 7 5 3 1 3 2 2 3 4 2 1 1 4 3 3 3 3 2 4 5 2 1 5 10 8 9 7 1 5 11 11 10 10 9 8 8 7 6 6 5 7 8
4 4 4 5 6 7 8 9 8 8 9 9 6 4 4 4 5 6 7 7 5 7 10 12 9 8 14 14 6 3 8 11 12 14 12 8 9 10 12 12 12 12 10 8 8 10 11 9 7 6 1 2 3 3 2 1 2 2 5 3 4 6 5 1 2 4 3 1 4 9 4 4 4 2 8 12 11 10 10 9 8 7 7 6 6 5 6 8
4 4 5 6 7 8 9 8 8 10 10 9 5 4 5 5 6 7 7 7 5 5 5 7 8 6 7 6 2 6 10 11 13 14 14 11 7 7 8 9 11 11 10 8 8 11 12 10 9 7 2 4 2 0 1 1 3 0 2 4 2 6 5 5 2 1 3 1 4 7 0 6 3 4 10 11 11 11 9 8 7 7 6 6 6 5 5 7
4 5 6 7 8 9 7 7 9 11 10 8 7 6 5 5 6 7 10 11 9 5 3 4 6 7 8 2 0 9 11 10 15 17 17 16 9 5 6 8 10 8 9 9 9 11 12 12 10 5 3 4 2 0 2 3 3 2 2 3 3 4 4 7 3 2 3 2 3 6 2 6 4 6 10 10 11 11 9 8 7 6 6 6 6 6 5 6
5 6 7 8 8 7 7 7 9 11 13 12 9 6 5 5 6 7 10 13 13 8 4 5 6 5 6 2 1 9 12 13 19 20 17 18 13 8 10 11 9 7 7 7 7 7 9 13 12 5 3 3 3 3 4 4 4 3 3 3 4 3 3 8 5 2 2 3 3 6 3 4 5 7 8 9 9 10 9 7 7 7 6 6 6 6 5 5
5 6 7 8 7 7 6 7 9 11 18 20 17 12 7 4 3 4 5 8 12 11 7 6 5 6 5 1 4 8 11 14 18 20 18 16 11 8 13 12 6 5 6 6 8 8 5 8 8 4 4 5 4 4 4 5 5 4 3 1 4 3 4 6 5 2 1 2 1 1 4 3 4 7 6 7 9 9 9 7 7 7 6 6 5 5 5 4
5 7 7 8 7 6 5 7 7 8 14 19 20 19 17 12 4 2 0 2 5 8 10 11 6 6 5 4 4 7 11 14 16 20 21 15 8 8 13 8 3 7 7 6 8 8 3 4 4 3 4 5 3 3 4 4 4 4 3 1 3 3 3 4 5 5 4 3 3 2 3 5 5 7 7 7 8 9 8 7 7 6 5 6 5 5 5 5
6 7 8 8 6 4 4 5 4 3 4 5 7 10 14 19 16 10 6 4 2 2 6 13 10 5 4 7 4 9 15 15 15 20 21 13 7 10 11 5 5 9 7 4 6 7 4 4 4 2 4 6 5 6 4 2 2 2 3 2 4 4 3 5 6 6 5 5 5 5 4 6 5 6 6 6 8 9 8 7 7 6 6 5 5 5 4 4
6 7 8 8 6 5 5 5 5 2 2 3 5 7 5 7 14 20 21 15 7 4 2 6 7 4 2 5 6 13 16 11 12 20 23 17 12 12 10 5 4 4 4 3 5 6 4 4 5 4 4 5 4 5 5 5 2 3 4 2 4 6 5 7 7 6 4 5 7 6 5 5 5 7 7 6 6 7 7 7 6 6 5 5 5 4 4 4
6 7 8 8 7 7 7 7 6 2 1 3 4 4 3 2 5 9 15 14 7 4 4 2 2 3 2 4 9 16 11 5 8 18 27 24 15 11 9 6 4 6 4 2 2 5 5 6 5 1 3 5 4 2 2 4 3 3 3 3 5 5 5 7 8 7 4 3 7 6 6 7 6 9 9 7 6 7 7 7 6 6 5 4 5 4 4 4
6 6 7 7 8 9 9 8 8 6 3 2 2 3 1 2 4 1 2 6 5 5 6 4 3 3 2 3 10 14 5 3 8 16 29 25 9 5 6 6 7 6 5 1 3 5 6 7 2 4 5 4 5 4 3 5 3 2 3 4 6 4 6 9 8 7 5 3 8 9 7 10 8 8 8 7 7 6 8 7 6 6 5 4 4 3 3 2
5 5 6 6 8 9 9 8 8 7 6 7 9 8 4 3 6 5 3 3 4 5 6 6 7 4 4 3 10 12 4 5 9 14 29 25 9 5 4 5 7 4 6 3 4 5 6 4 5 6 3 3 4 3 4 5 3 3 1 2 4 4 6 10 7 4 5 3 8 10 7 9 9 6 8 8 7 4 5 7 6 6 6 4 2 2 1 2
4 4 4 3 5 8 9 9 7 6 8 10 12 9 5 5 6 5 3 5 1 4 3 4 6 5 6 5 11 12 6 6 5 10 22 19 7 5 3 5 6 4 7 6 5 4 4 2 6 4 3 4 5 5 7 6 5 3 2 2 4 5 5 7 6 6 6 4 7 10 7 7 5 2 5 5 5 5 5 7 6 5 6 4 2 2 2 4
3 3 2 0 3 5 6 8 7 7 8 9 11 8 5 4 4 2 2 4 1 2 1 1 2 3 3 3 10 8 3 3 2 7 16 12 5 4 3 3 5 6 6 6 8 7 2 5 4 4 4 1 2 6 7 6 6 3 1 1 4 7 5 8 8 8 8 5 4 5 6 5 2 4 3 1 4 5 5 6 5 3 4 4 2 3 4 5
3 2 1 1 2 4 4 5 6 7 7 6 8 6 4 2 1 1 2 4 3 3 2 1 1 3 3 5 10 3 3 3 2 6 11 9 4 3 3 1 3 5 4 4 8 6 1 4 1 6 6 4 4 3 3 3 4 6 3 4 5 8 9 12 9 8 7 5 2 4 4 5 3 2 5 3 3 4 4 5 5 4 3 3 4 5 4 5
3 2 1 2 3 5 3 2 5 4 3 4 4 2 2 1 0 1 3 4 4 3 4 3 1 6 7 8 10 1 5 4 6 7 10 10 4 2 3 3 2 3 2 2 4 2 2 4 4 4 4 7 6 2 1 3 4 4 5 4 5 7 10 15 12 6 2 4 4 3 1 5 5 3 5 5 4 4 4 4 4 3 3 4 4 4 4 5
2 2 1 2 3 5 2 1 3 3 1 1 1 1 0 1 2 2 3 5 4 2 3 4 3 7 7 8 9 4 3 7 8 8 9 11 6 3 4 4 2 2 2 2 3 1 2 5 7 6 5 6 4 3 3 5 5 4 6 1 6 9 11 15 11 4 3 4 5 2 1 4 4 4 2 4 6 4 4 4 3 2 3 3 4 4 5 3
2 1 1 1 3 4 3 1 2 1 2 0 1 1 1 1 2 2 5 4 3 2 1 3 3 6 6 7 9 6 2 5 3 7 9 12 10 3 4 2 2 4 3 5 1 4 1 2 2 4 5 4 2 4 5 5 3 7 7 3 6 8 12 13 8 5 3 1 5 4 2 2 5 3 1 4 5 3 4 4 3 2 1 3 4 5 4 2
1 1 0 1 2 2 2 2 1 1 2 2 3 2 2 2 1 4 5 2 2 1 1 2 4 6 7 7 7 5 1 1 2 5 8 10 11 5 4 1 2 1 3 5 4 5 1 2 4 4 3 2 5 7 5 5 3 7 6 5 7 7 10 9 5 4 1 1 5 4 3 1 5 4 1 2 2 3 3 2 3 2 2 5 4 3 4 4
1 1 2 3 3 2 2 2 1 2 2 2 2 1 2 2 4 6 4 0 1 2 2 3 3 4 7 7 6 5 4 3 2 4 5 5 10 8 4 1 3 4 3 5 2 3 2 2 3 3 1 3 5 7 5 6 5 5 6 6 7 6 6 4 1 1 2 1 5 5 0 2 4 4 2 2 2 5 4 2 3 3 5 4 2 3 5 5
3 3 4 4 3 3 3 1 2 2 1 2 1 2 3 2 5 6 2 1 1 3 3 4 3 4 7 6 4 6 5 5 5 6 5 4 8 9 5 4 5 4 4 5 4 4 5 3 1 2 1 1 2 5 4 2 1 3 4 4 6 6 4 4 4 4 2 5 6 4 3 4 2 5 3 4 4 5 5 3 4 3 3 3 3 4 4 4
7 7 6 6 4 2 2 1 2 1 1 0 0 3 4 3 4 3 1 3 2 2 2 3 4 5 6 4 4 6 4 5 5 5 4 3 5 6 5 3 2 3 5 4 4 6 4 3 3 3 1 1 2 4 5 5 6 5 4 5 6 5 5 5 4 4 3 6 5 2 8 5 5 5 4 5 6 6 6 6 5 1 3 4 4 4 4 5
10 10 9 9 6 4 3 2 2 2 1 1 2 4 6 5 2 1 3 3 1 1 1 1 4 5 4 5 5 6 3 3 5 5 3 3 4 3 4 4 2 2 2 3 4 5 4 5 4 3 2 1 2 2 4 4 4 4 2 3 3 3 5 6 4 4 6 7 3 3 5 5 5 3 5 7 7 8 5 5 5 3 3 3 3 4 7 10
12 13 13 12 10 7 4 3 2 2 1 2 3 5 7 5 1 1 2 3 1 3 2 1 5 5 4 3 2 4 4 2 4 5 4 4 5 4 4 6 6 3 1 2 2 1 2 5 3 1 2 1 2 1 3 2 2 3 2 5 3 2 1 4 3 3 7 10 7 3 2 4 3 2 6 6 5 4 2 3 2 4 4 3 6 8 12 14
9 13 16 16 14 10 6 3 2 1 1 4 6 6 6 2 2 0 1 3 2 4 4 3 4 5 5 3 2 3 2 3 4 5 4 3 3 2 2 4 5 3 2 2 2 0 1 5 6 3 1 1 1 2 3 3 2 4 2 4 1 3 4 3 4 5 6 9 8 3 2 4 3 3 3 3 4 5 4 2 5 10 10 10 10 12 13 13
5 9 14 17 16 13 8 4 2 1 1 6 8 5 2 2 1 1 1 1 0 2 5 5 5 5 5 4 3 4 2 2 3 4 3 2 1 0 1 1 3 3 3 2 1 1 1 5 7 5 4 1 3 2 0 2 1 2 2 1 4 4 6 2 4 4 3 6 6 2 3 3 4 4 2 5 5 6 7 9 12 13 13 13 12 13 13 12
4 4 8 15 17 13 10 7 3 2 3 7 7 3 1 1 1 2 1 1 0 1 2 3 3 3 3 3 4 6 5 2 3 3 2 1 0 0 1 1 2 1 2 2 1 1 1 5 8 4 4 4 2 1 2 1 2 1 1 4 2 1 4 2 2 4 4 6 5 2 4 4 3 3 3 6 7 9 10 13 14 13 14 14 13 13 13 12
3 2 4 14 16 13 12 9 4 4 6 8 6 3 2 1 1 2 1 0 0 1 4 3 0 1 2 2 4 6 5 3 4 4 2 2 1 1 2 1 1 2 2 1 0 1 1 3 8 4 3 4 2 4 4 4 1 3 3 1 2 1 2 1 1 3 4 7 6 5 7 3 2 3 4 6 6 8 10 12 13 14 13 13 14 14 14 14
3 2 3 12 16 13 11 8 6 7 7 7 4 2 2 1 1 2 1 1 0 2 4 1 1 1 1 0 2 4 3 2 3 3 1 1 2 1 3 0 2 3 5 2 2 2 0 1 6 5 1 2 3 2 1 4 3 2 2 2 2 2 3 1 1 2 3 6 7 9 9 2 3 3 3 4 5 8 11 13 12 11 12 12 13 13 13 13
2 3 2 11 15 10 8 12 11 8 6 5 3 2 1 1 2 3 3 1 1 1 2 1 0 2 1 1 1 2 2 1 2 2 1 1 3 1 2 2 1 4 5 2 1 2 1 1 5 6 4 3 2 2 4 3 1 1 2 3 3 1 1 2 2 2 2 4 4 7 9 3 2 1 4 5 9 11 12 13 9 9 12 13 13 13 13 12
3 3 2 13 15 6 3 12 10 5 5 4 2 2 2 2 1 2 2 1 1 1 1 3 2 1 0 2 2 2 2 2 2 1 2 2 2 2 0 2 1 3 3 3 1 1 1 1 4 5 4 3 4 4 4 4 4 4 2 3 3 1 0 2 5 2 2 2 3 4 10 7 1 3 4 7 11 12 11 10 9 10 13 13 13 14 13 13
5 3 4 15 12 3 7 8 5 3 4 2 1 1 1 1 2 1 2 1 1 0 1 2 1 1 1 1 2 1 2 2 2 1 1 1 1 2 2 2 1 0 1 1 1 1 1 1 3 5 5 6 7 4 2 2 2 3 2 2 3 3 3 2 6 4 1 3 3 4 9 7 2 4 6 10 12 12 10 9 10 12 12 13 15 15 14 14
3 3 5 15 7 7 12 7 3 5 4 0 1 1 1 2 1 1 1 2 1 1 2 2 0 1 0 1 1 1 1 1 2 1 1 2 3 3 3 2 1 1 1 1 1 1 1 0 2 5 5 5 5 4 3 2 3 2 2 2 3 3 3 4 5 2 1 4 3 3 8 7 2 4 9 12 12 11 8 8 12 12 12 14 16 15 14 14
2 3 5 15 8 4 6 4 2 3 1 0 2 2 2 2 2 1 1 2 1 1 2 1 0 1 0 1 1 1 2 1 1 1 1 2 2 1 1 1 1 1 1 1 0 2 2 1 2 5 7 6 5 4 5 3 2 1 4 2 1 3 1 1 2 1 1 6 6 4 9 9 2 7 12 13 13 11 8 9 11 11 12 13 14 14 13 12
3 1 3 14 17 11 4 4 6 5 2 2 4 2 2 3 1 2 2 0 0 2 1 1 1 1 1 0 0 2 1 0 2 2 2 2 2 1 2 3 2 1 1 1 1 1 1 1 0 2 4 7 7 6 6 4 3 3 3 3 3 4 3 1 1 1 4 6 4 4 10 13 10 12 16 17 14 10 10 12 12 11 12 13 13 13 11 11
3 3 2 8 13 10 3 1 5 6 4 4 3 3 3 2 2 1 2 0 1 1 1 1 1 1 1 2 3 3 2 1 2 2 2 3 3 2 3 4 3 2 1 1 2 2 1 1 2 5 6 6 8 9 6 5 6 9 10 10 6 4 5 2 0 4 6 5 6 9 11 15 16 17 19 17 12 10 11 13 13 12 11 12 13 12 10 10
3 2 1 1 4 5 4 5 5 4 3 4 3 1 2 1 2 1 1 0 0 1 1 0 1 2 2 3 3 3 3 3 2 1 2 4 4 4 2 4 2 2 4 2 1 2 3 3 4 6 8 9 9 11 10 8 9 11 12 12 8 4 4 4 5 10 6 4 11 13 10 14 17 18 19 15 9 10 12 12 13 12 11 13 13 12 11 12
3 2 1 1 2 2 2 3 3 5 5 4 3 1 1 2 1 1 1 1 1 1 1 1 3 2 1 1 1 2 4 5 3 2 2 2 3 5 4 1 1 2 4 2 1 3 3 3 5 4 6 9 9 11 12 10 8 8 10 13 11 4 7 8 12 13 6 5 14 15 15 16 17 16 16 13 10 12 14 14 14 13 13 15 14 12 12 14
3 3 1 2 3 3 2 1 3 6 6 4 3 2 2 2 1 1 1 2 3 2 1 1 3 3 1 2 2 1 3 3 4 4 2 2 3 3 3 2 1 2 3 1 2 1 2 3 4 3 7 10 10 12 12 8 7 9 12 14 12 6 8 11 12 10 6 9 13 14 17 18 14 12 12 12 11 13 14 15 15 14 15 17 15 12 13 15
2 3 1 4 4 1 0 2 3 5 4 4 3 1 1 3 1 2 0 2 1 3 2 1 4 6 4 3 3 3 5 4 4 6 2 1 4 2 1 2 1 1 1 0 2 1 0 3 3 2 5 9 8 9 9 7 8 13 15 13 11 9 6 7 7 6 5 9 12 14 17 17 11 9 10 11 13 15 16 17 16 14 16 17 14 12 14 16
4 5 6 6 4 3 2 2 3 5 3 3 2 1 1 1 2 1 0 1 2 1 1 1 4 5 3 1 3 5 6 5 6 8 5 3 4 3 2 2 0 2 3 1 1 2 0 3 4 5 4 8 6 4 9 11 11 11 10 9 9 8 4 3 4 4 4 9 14 14 14 13 10 9 11 13 16 18 17 17 15 15 17 17 13 13 16 17
6 4 5 7 3 2 2 3 3 4 2 1 1 2 0 2 2 0 1 0 0 1 3 3 1 2 3 3 4 6 5 5 7 7 4 4 4 3 3 2 2 1 2 1 0 0 1 1 3 3 4 8 7 6 9 10 9 7 5 4 5 5 4 4 4 5 6 8 10 11 11 11 11 10 11 14 16 18 17 14 14 15 17 14 12 14 17 17
Wind_Direction
118 115 99 80 62 56 57 51 43 27 18 14 17 22 25 30 32 33 24 15 6 0 357 352 351 351 353 304 274 246 313 38 29 27 33 3 351 356 360 354 351 351 347 343 347 354 351 351 322 259 276 296 7 94 355 27 57 56 75 87 71 81 33 300 45 39 80 336 331 360 67 92 63 69 122 67 48 66 73 68 70 68 66 65 62 50 41 43
123 112 92 72 60 57 53 43 34 18 11 13 22 25 28 36 25 25 17 10 5 3 358 350 355 353 341 285 270 279 296 35 32 30 17 357 357 360 359 1 359 358 359 1 4 0 342 328 322 316 2 263 337 62 54 352 55 79 104 86 111 176 75 30 74 32 35 23 343 24 68 72 25 338 94 74 43 59 73 67 67 72 63 60 57 51 47 46
119 103 84 67 60 57 45 32 22 8 8 16 24 27 32 35 27 30 15 8 8 7 359 352 7 6 344 257 255 286 287 43 36 14 358 357 2 1 3 3 358 357 359 359 347 341 308 287 300 322 63 179 280 103 72 355 44 74 98 72 276 167 82 37 64 31 24 4 352 50 69 59 20 9 86 109 86 58 72 78 76 80 72 64 52 51 51 49
108 93 79 64 59 52 34 20 10 2 8 18 24 28 33 33 37 32 15 13 13 14 8 1 13 16 20 146 221 306 342 49 30 343 349 355 359 2 4 358 354 352 347 345 325 307 291 285 288 292 95 29 315 65 49 349 48 29 88 97 278 129 82 35 69 32 1 6 44 94 81 71 45 31 88 135 95 55 79 104 103 102 91 82 61 53 55 54
99 88 75 63 58 41 22 10 3 1 10 20 25 27 32 34 39 25 15 15 11 15 16 13 12 21 42 62 18 328 12 55 330 335 349 350 355 0 3 0 352 346 344 343 324 309 290 279 291 4 83 41 354 39 12 324 83 59 77 98 21 88 98 24 85 37 1 25 66 95 91 101 108 40 51 119 110 136 143 116 110 105 100 100 90 71 60 56
97 86 73 64 49 28 13 4 360 5 16 25 28 29 34 35 32 18 14 14 6 5 7 12 11 16 37 48 48 41 71 115 308 334 346 346 356 360 2 0 356 354 355 1 354 347 316 292 327 15 53 63 42 75 344 335 72 91 19 56 53 94 116 163 88 12 9 62 72 107 113 107 96 68 52 88 108 146 138 122 114 105 105 101 94 86 71 62
97 85 74 59 38 19 7 2 3 16 27 30 30 30 32 29 22 15 13 14 6 359 1 13 17 13 8 34 52 48 79 148 320 337 343 348 2 358 358 8 14 18 24 24 11 4 9 18 41 122 69 66 74 79 4 0 52 95 141 110 96 107 126 151 157 222 293 89 108 111 113 119 115 110 91 99 120 137 127 121 116 113 108 99 91 85 79 78
92 79 70 52 28 11 5 4 13 27 31 28 24 23 24 19 15 13 16 16 13 13 12 17 15 7 2 20 59 44 61 321 330 342 341 351 8 360 4 22 29 34 38 37 23 9 30 29 20 69 77 65 97 74 5 33 33 78 149 207 126 115 156 155 151 203 246 109 106 99 107 141 137 125 121 133 143 140 133 126 120 114 104 98 94 87 79 76
84 76 64 44 19 8 6 9 21 27 21 14 13 14 16 11 11 17 22 19 23 28 27 32 31 33 60 87 90 64 358 326 337 346 344 355 10 12 27 30 28 33 38 40 35 37 54 39 5 53 116 124 90 70 348 69 15 217 163 191 133 152 189 153 163 214 227 144 111 104 113 146 143 121 121 158 156 149 142 134 132 120 110 108 107 104 92 78
75 71 57 30 12 7 7 15 23 22 14 10 7 8 13 11 17 28 28 28 38 42 45 50 50 60 81 87 74 60 334 337 355 353 347 358 10 19 33 27 24 35 42 38 36 41 53 30 305 118 124 94 70 53 20 105 188 219 122 69 120 171 221 150 161 213 220 135 129 129 138 160 164 130 129 177 163 153 146 141 142 129 129 130 123 116 99 89
70 64 43 19 10 8 13 24 27 25 18 7 357 6 20 25 38 37 27 28 47 60 61 61 55 61 72 73 71 55 344 356 7 358 352 354 6 20 28 22 21 33 42 43 36 31 22 354 317 69 91 64 51 28 26 87 113 64 83 40 324 324 319 130 152 208 196 60 135 132 144 172 189 172 155 170 162 154 147 146 146 135 142 137 130 127 107 100
72 57 33 18 12 16 26 36 39 31 15 356 351 19 44 56 51 30 20 22 51 81 73 64 54 51 63 64 65 23 3 11 6 3 3 351 5 27 28 20 22 32 37 39 32 29 26 14 46 77 64 97 92 37 18 350 56 66 90 87 305 350 344 274 165 206 158 150 148 118 129 214 230 205 156 159 158 153 144 145 148 142 146 141 136 133 122 112
67 42 25 22 21 28 40 48 46 27 5 354 14 59 71 70 42 25 29 38 60 87 80 59 47 47 58 61 44 21 18 14 9 11 12 5 20 38 27 12 12 29 38 39 35 31 28 18 53 91 107 90 110 178 110 30 53 10 94 107 348 12 328 286 332 164 125 191 180 118 239 265 253 176 158 157 154 146 141 148 150 149 151 148 144 133 131 119
48 31 25 29 32 41 54 57 42 25 18 32 66 84 83 61 38 54 63 55 57 65 67 40 35 57 67 100 138 22 14 9 17 17 10 5 14 19 2 357 355 10 30 36 39 29 25 25 45 76 68 81 134 167 52 11 25 340 359 57 38 46 297 291 314 122 116 260 156 117 246 260 238 186 164 163 156 145 147 156 153 154 156 152 154 142 138 128
35 29 33 38 43 57 66 57 41 39 53 64 72 81 78 54 57 83 72 57 55 57 85 58 44 77 75 82 317 3 1 6 13 13 7 357 358 354 344 348 344 346 357 9 18 4 17 41 53 56 345 4 66 58 24 359 6 18 33 338 347 47 296 297 301 126 147 272 97 108 253 260 225 200 171 161 154 143 146 158 157 157 158 153 154 145 141 135
31 34 41 45 55 71 66 54 49 59 72 73 70 66 67 64 85 98 69 58 54 50 65 50 53 109 98 358 324 351 357 358 358 1 4 355 351 346 338 338 334 338 323 315 337 332 353 56 64 65 16 7 40 69 49 22 349 1 74 262 301 349 327 314 310 346 65 290 5 146 242 259 220 202 179 156 146 142 146 156 159 156 157 151 148 144 140 129
34 40 48 54 64 73 59 49 54 71 78 77 70 62 64 63 74 175 226 74 63 51 56 33 30 104 75 355 343 346 338 340 348 355 0 360 350 338 339 336 323 337 322 311 344 350 1 58 55 53 42 22 17 77 67 12 323 326 26 12 286 308 317 318 305 313 16 14 300 280 240 253 225 188 180 166 147 144 152 160 162 156 152 149 140 137 133 129
39 47 57 64 65 54 30 17 27 61 73 62 43 35 52 58 63 74 60 88 127 40 47 19 21 87 23 359 354 325 322 328 347 357 1 6 345 328 332 303 283 327 341 356 11 18 24 28 47 56 23 18 19 59 91 238 252 272 311 335 308 318 302 297 304 306 360 5 309 310 285 265 227 187 192 187 156 146 160 162 158 158 153 150 131 126 124 129
47 58 71 73 60 36 18 4 359 333 268 291 311 318 340 39 55 56 49 59 71 48 52 347 15 108 301 329 324 324 324 324 352 2 3 1 340 330 335 302 283 350 35 46 4 12 48 32 39 54 357 348 358 66 137 212 235 252 271 291 292 308 292 279 293 296 341 345 297 290 281 265 219 204 203 197 164 146 161 157 156 161 148 138 123 128 125 118
54 70 82 74 57 45 35 29 27 33 267 293 303 330 342 351 29 33 31 46 69 95 119 294 357 99 320 306 325 339 340 327 2 6 2 356 336 336 355 353 17 41 43 98 11 7 68 63 41 109 265 292 304 326 181 247 266 265 297 329 296 291 289 287 292 296 346 358 283 273 272 273 242 211 198 188 165 148 159 158 160 155 137 135 127 139 144 127
61 82 91 73 57 51 45 43 46 54 49 7 11 43 98 119 71 98 337 31 37 62 78 22 35 78 334 302 340 355 7 332 355 4 1 357 349 353 356 9 39 26 340 145 100 19 60 71 359 255 249 287 297 295 324 316 304 298 290 311 314 296 284 290 286 295 0 22 285 285 286 282 261 212 190 175 165 170 172 164 160 144 128 127 128 153 168 135
69 99 103 74 57 53 51 51 49 58 65 75 85 85 116 123 109 143 145 74 15 22 59 32 41 44 342 0 4 7 42 2 348 354 359 1 15 27 351 30 57 24 338 17 63 20 45 55 300 280 300 340 328 354 29 0 8 27 343 335 324 303 295 291 273 291 352 5 288 292 292 278 267 204 175 172 168 170 156 143 140 130 113 102 127 193 161 42
81 114 119 80 55 49 50 52 48 60 71 81 87 89 108 103 117 142 95 99 23 348 34 28 45 23 351 21 8 8 47 30 343 334 355 3 14 21 31 44 44 27 10 33 78 66 53 324 286 302 2 4 352 16 40 24 20 39 52 39 303 302 331 298 289 319 311 267 263 286 296 280 278 134 148 172 148 120 112 115 116 123 132 142 185 196 109 59
93 119 138 103 37 34 40 43 43 56 63 79 85 85 109 116 126 137 64 90 43 327 346 36 91 45 354 351 351 1 73 44 355 331 353 10 2 355 47 55 40 33 21 52 86 88 109 248 277 1 2 36 27 7 38 38 354 323 169 124 283 297 301 271 288 322 310 277 255 298 320 298 262 127 148 153 105 115 113 108 118 147 163 162 112 87 81 62
104 127 131 354 353 350 359 22 35 54 59 71 81 76 83 113 194 334 61 76 11 316 338 351 98 19 338 335 342 343 132 47 25 334 353 20 12 356 24 11 66 36 358 50 79 80 304 256 350 16 354 47 75 18 50 85 351 319 247 215 266 295 294 288 307 339 339 319 318 25 355 298 294 178 187 178 115 129 131 128 160 190 162 119 79 68 53 43
117 134 86 24 359 341 329 16 28 31 45 52 67 85 66 54 20 22 82 68 356 309 351 346 354 0 345 340 337 27 97 358 318 337 6 21 7 128 51 338 52 41 308 43 69 102 324 334 38 40 12 47 59 3 252 119 54 321 246 227 288 312 306 301 315 343 342 280 291 28 279 266 309 293 214 176 142 141 157 171 187 179 114 96 89 72 47 40
130 134 80 37 8 4 14 96 14 10 35 21 29 118 31 48 108 81 69 47 357 335 2 325 330 3 351 339 344 78 100 306 315 351 15 20 1 130 71 5 25 335 247 85 30 260 310 349 20 35 39 46 35 321 247 131 93 273 251 288 321 315 302 296 305 294 238 269 306 343 211 252 291 286 237 140 128 139 192 206 191 129 104 107 102 68 43 33
141 146 88 27 357 15 58 61 334 36 78 76 30 82 191 154 127 74 82 70 344 13 23 299 326 354 346 352 17 82 187 280 5 337 339 21 17 63 80 62 161 278 278 104 99 268 305 350 0 43 38 26 331 270 237 141 119 258 259 305 303 292 288 289 291 270 245 283 304 317 9 299 271 281 52 104 120 154 213 211 162 144 124 88 74 40 9 330
161 212 258 341 340 4 37 4 317 120 102 110 73 63 162 140 56 51 80 108 317 356 219 305 343 336 341 4 21 50 341 331 86 298 318 18 12 24 86 116 160 274 324 97 156 240 240 219 201 126 70 321 277 268 234 163 199 267 285 305 293 284 283 280 263 266 287 150 255 288 27 354 282 300 69 118 125 173 214 202 171 177 34 45 48 357 334 337
332 298 301 318 316 309 327 353 71 111 115 113 70 60 125 96 62 58 48 33 347 313 296 19 10 333 3 19 354 358 17 350 316 323 342 14 0 14 75 357 51 79 359 36 101 237 288 273 196 140 146 229 267 280 241 192 220 302 347 329 303 292 291 290 205 113 68 271 245 230 153 24 316 296 229 198 183 170 179 233 269 327 11 11 333 329 338 335
2 347 328 328 319 299 314 18 95 108 112 114 62 62 85 38 58 84 73 325 16 325 349 8 344 359 18 27 348 339 2 335 331 11 7 1 8 11 28 13 20 46 7 3 5 319 328 347 259 257 248 164 337 314 297 278 326 18 20 354 331 317 332 3 10 43 48 275 252 232 347 10 275 263 239 222 216 175 166 198 237 267 312 310 316 334 324 302
30 19 7 1 356 343 14 89 130 106 61 115 86 69 83 36 27 84 269 332 3 329 5 329 314 354 358 11 6 334 336 335 345 32 27 29 41 29 44 46 355 13 1 331 334 333 315 285 278 297 302 115 40 343 330 352 25 34 33 26 2 341 352 356 345 352 296 253 240 352 2 343 242 245 221 211 215 204 199 185 174 202 327 331 331 316 310 331
50 42 32 29 28 25 55 96 130 104 61 48 73 59 77 74 37 250 283 334 2 299 1 294 304 327 345 18 3 328 339 338 340 17 40 74 67 39 41 40 47 52 324 296 345 350 322 303 320 343 321 184 94 31 326 326 358 0 24 67 50 22 346 323 310 321 296 267 252 35 0 294 277 273 207 209 211 208 203 157 120 28 340 311 314 332 350 358
55 46 38 38 39 37 58 85 89 104 69 55 72 54 62 78 206 243 301 290 277 332 346 295 320 337 19 49 339 334 12 332 337 16 19 36 42 9 350 358 17 51 15 339 354 356 332 309 294 286 309 343 61 172 207 217 294 285 158 122 110 122 217 268 252 277 293 289 295 347 311 243 272 257 204 204 193 157 104 133 130 345 340 353 1 5 1 358
48 37 31 31 34 38 52 70 64 83 76 71 66 59 78 129 240 191 291 272 303 339 314 309 2 20 13 350 313 8 35 297 341 30 28 39 57 359 345 339 347 25 66 16 312 227 334 274 256 252 284 49 322 241 164 102 308 273 120 89 53 177 177 217 226 228 267 289 290 294 247 216 232 255 203 132 95 81 50 345 348 353 2 11 6 3 0 356
38 32 27 25 27 33 41 45 49 38 89 82 66 56 115 183 223 135 231 278 321 307 314 343 29 38 349 324 333 358 3 266 331 19 25 60 121 331 11 286 313 23 86 112 293 342 341 277 278 311 326 218 194 234 216 112 233 312 49 254 246 177 146 181 267 270 292 286 275 245 252 289 329 318 36 63 36 21 5 356 357 357 2 6 3 359 355 351
49 50 27 21 20 26 28 19 19 44 73 82 80 88 165 179 162 175 257 339 177 252 24 24 18 21 348 327 320 332 342 321 334 2 355 1 74 27 8 291 290 30 113 148 253 228 189 285 287 284 289 269 191 138 300 252 143 91 262 242 254 81 101 115 284 314 317 279 270 218 239 287 348 316 356 29 10 357 357 355 351 355 5 3 356 352 348 347
46 112 33 17 13 14 16 10 17 65 75 72 76 97 91 84 191 202 240 20 276 35 62 67 304 41 30 346 300 309 335 350 347 359 359 333 332 126 106 313 307 12 359 75 110 272 157 297 292 251 224 286 5 47 323 307 96 143 208 205 89 25 309 25 328 286 289 283 285 275 267 259 188 245 336 9 4 354 348 347 351 1 7 355 347 347 345 345
37 89 22 7 7 5 14 38 66 65 68 71 78 99 93 113 269 258 201 153 86 74 67 58 277 24 37 61 279 298 333 357 331 347 24 347 323 128 118 176 288 351 360 56 160 269 65 254 286 290 290 326 4 39 274 294 331 34 29 14 60 167 203 205 214 202 252 278 284 294 295 260 193 249 8 14 354 357 350 348 359 5 359 348 345 347 344 344
40 78 2 359 5 1 28 61 62 50 62 89 132 131 89 163 269 272 218 177 132 99 82 203 7 24 331 324 310 299 332 318 296 324 339 335 329 337 93 98 288 312 333 5 175 278 348 188 261 300 349 2 322 257 195 208 266 29 11 315 315 304 216 255 254 172 189 259 273 304 299 259 169 32 60 22 357 2 356 353 2 1 351 348 347 346 344 345
40 75 325 347 352 324 35 55 48 46 75 76 105 99 67 155 198 292 266 206 153 174 135 151 143 97 314 337 320 291 327 319 297 315 305 336 11 325 259 139 203 299 327 359 1 299 331 218 253 301 331 309 260 233 213 211 193 169 193 229 229 242 314 301 281 228 142 221 233 283 287 278 162 93 55 17 359 356 359 5 4 351 348 348 347 347 347 345
52 93 317 344 356 82 83 53 16 44 84 66 64 104 74 130 129 304 298 1 65 110 54 109 134 100 128 290 299 315 346 314 295 326 301 269 212 234 216 169 172 340 38 349 299 262 217 198 265 273 264 267 270 267 281 271 194 155 183 206 173 152 143 207 266 276 243 254 247 253 276 279 153 107 28 11 356 350 6 16 358 346 348 348 346 347 346 342
78 143 346 356 8 112 79 56 349 31 65 197 356 36 27 82 104 349 348 13 23 7 23 42 43 23 106 219 349 1 332 284 257 258 275 274 253 224 199 179 169 118 98 332 315 315 306 31 296 281 269 274 288 314 342 13 57 48 273 234 168 174 179 197 227 260 303 256 241 259 275 269 145 65 14 2 348 350 11 9 352 347 347 348 346 344 342 338
116 173 10 17 31 117 82 88 125 61 69 187 44 19 357 50 87 72 27 353 357 88 56 19 274 14 298 169 129 238 269 330 294 284 288 265 262 237 230 225 161 152 210 218 288 327 300 288 333 323 322 321 328 338 324 328 48 265 261 271 204 200 179 261 234 66 298 240 207 224 273 271 307 10 358 349 345 354 4 354 350 349 346 348 344 338 336 337
71 78 343 20 41 67 94 145 138 124 152 110 68 43 24 30 39 159 153 298 275 145 128 329 350 48 280 5 51 266 274 147 269 319 6 276 268 299 269 245 199 187 252 288 39 11 263 235 331 319 312 311 307 307 305 306 312 283 277 303 274 209 180 249 288 257 262 254 218 218 266 282 314 344 343 342 348 356 353 346 346 348 346 343 337 332 334 339
80 56 331 359 29 53 70 91 102 112 145 125 71 33 64 48 300 238 135 78 280 141 111 328 14 46 10 23 9 308 296 241 258 319 339 280 276 280 222 201 207 207 149 55 39 71 107 265 230 211 223 253 269 274 287 315 309 299 297 292 274 214 197 188 138 251 262 293 282 255 267 294 317 333 335 340 352 351 342 341 341 342 342 337 332 329 332 337
96 82 64 353 7 37 35 20 52 86 132 128 100 28 86 78 311 322 59 147 195 92 59 13 54 39 357 16 15 305 294 320 297 279 285 255 265 300 244 169 210 215 134 103 286 111 75 306 260 233 236 247 262 276 291 308 297 289 291 289 278 221 189 180 224 254 277 323 285 280 305 317 317 327 332 339 355 344 335 339 338 336 337 334 329 327 331 335
78 130 158 128 82 73 44 20 60 74 64 86 107 120 114 79 19 347 306 332 22 40 58 23 14 21 189 158 69 288 307 338 318 257 283 268 283 331 335 194 216 160 120 76 289 126 104 265 250 246 264 267 274 283 290 296 285 273 278 287 288 246 192 208 238 253 266 270 274 297 326 318 312 324 333 340 349 338 332 333 332 331 332 330 327 326 329 331
83 105 30 53 99 153 171 37 80 79 64 75 88 82 110 110 80 253 251 21 4 338 64 55 309 313 258 178 130 218 280 331 312 281 283 283 287 331 328 298 318 116 111 35 306 143 133 255 262 271 279 279 278 278 285 291 288 288 288 291 297 274 219 225 245 260 265 258 273 306 317 308 313 329 334 339 339 329 326 327 327 329 329 327 325 325 329 330
135 146 142 68 67 113 164 26 73 79 53 58 79 61 101 122 164 251 252 87 23 316 18 48 277 289 275 201 156 221 237 209 248 262 236 295 300 281 235 275 317 353 27 78 306 337 137 278 320 6 305 291 276 269 285 293 290 295 294 293 301 297 259 238 258 284 296 285 296 314 309 304 320 341 338 335 331 327 326 325 326 328 326 324 324 325 330 330
106 132 138 110 62 3 15 17 71 91 41 16 87 155 23 115 185 210 252 164 167 208 210 223 281 304 315 216 208 249 245 207 228 249 228 216 253 237 231 248 81 339 325 300 324 359 27 288 343 34 337 295 279 288 307 308 301 296 296 302 306 301 285 241 250 265 287 299 308 313 308 309 329 345 334 328 329 330 326 323 326 326 324 323 325 329 329 327
101 98 112 105 77 4 31 13 31 80 73 329 151 166 203 227 224 111 54 294 109 157 186 181 238 334 348 328 284 260 244 224 236 251 235 217 239 250 254 227 128 136 263 206 242 304 118 328 330 12 321 291 299 320 309 309 317 308 296 302 297 295 302 285 272 286 298 305 311 309 308 319 333 336 326 325 331 330 323 322 324 321 320 321 326 329 326 323